When you browse on this site, cookies collect data to enhance your experience and personalize the content and advertising you see.
Visit our Privacy Policy to learn more. By continuing to use the site, you agree to this use of cookies and data.
EN

Hourly Weather Kidira

Today, 5 July, Sunday

Time Temperature Precipitation Wind Pressure Humidity
00:00 +35°C° 0 mm 7 mps 752 mmHg 52%
01:00 +35°C° 0 mm 7 mps 751 mmHg 56%
02:00 +34°C° 0 mm 7 mps 751 mmHg 60%
03:00 +33°C° 0 mm 6 mps 751 mmHg 62%
04:00 +33°C° 0 mm 6 mps 752 mmHg 63%
05:00 +32°C° 0 mm 6 mps 752 mmHg 65%
06:00 +32°C° 0 mm 6 mps 752 mmHg 61%
07:00 +33°C° 0 mm 6 mps 752 mmHg 57%
08:00 +33°C° 0 mm 6 mps 753 mmHg 53%
09:00 +35°C° 0 mm 6 mps 753 mmHg 49%
10:00 +38°C° 0 mm 6 mps 753 mmHg 44%
11:00 +39°C° 0 mm 5 mps 753 mmHg 40%
12:00 +40°C° 0 mm 5 mps 752 mmHg 37%
13:00 +41°C° 0 mm 5 mps 751 mmHg 34%
14:00 +42°C° 0 mm 5 mps 750 mmHg 31%
15:00 +42°C° 0 mm 5 mps 750 mmHg 31%
16:00 +42°C° 0 mm 5 mps 750 mmHg 31%
17:00 +42°C° 0 mm 5 mps 750 mmHg 31%
18:00 +41°C° 0 mm 5 mps 750 mmHg 35%
19:00 +40°C° 0 mm 6 mps 751 mmHg 39%
20:00 +39°C° 0 mm 6 mps 751 mmHg 43%
21:00 +38°C° 0 mm 6 mps 751 mmHg 46%
22:00 +36°C° 0 mm 6 mps 752 mmHg 50%
23:00 +35°C° 0 mm 6 mps 753 mmHg 54%

Tomorrow, 6 July, Monday

Time Temperature Precipitation Wind Pressure Humidity
00:00 +34°C° 0.2 mm 6 mps 752 mmHg 57%
01:00 +34°C° 0.2 mm 6 mps 752 mmHg 60%
02:00 +33°C° 0.2 mm 6 mps 752 mmHg 63%
03:00 +32°C° 0.5 mm 6 mps 752 mmHg 65%
04:00 +32°C° 0.5 mm 5 mps 752 mmHg 66%
05:00 +30°C° 0.5 mm 5 mps 753 mmHg 68%
06:00 +32°C° 0.1 mm 5 mps 753 mmHg 67%
07:00 +32°C° 0.1 mm 5 mps 753 mmHg 66%
08:00 +32°C° 0.1 mm 6 mps 754 mmHg 66%
09:00 +33°C° 0 mm 5 mps 754 mmHg 62%
10:00 +34°C° 0 mm 4 mps 754 mmHg 58%
11:00 +35°C° 0 mm 3 mps 754 mmHg 54%
12:00 +36°C° 0 mm 3 mps 753 mmHg 49%
13:00 +37°C° 0 mm 3 mps 752 mmHg 44%
14:00 +40°C° 0 mm 4 mps 751 mmHg 39%
15:00 +39°C° 0 mm 3 mps 751 mmHg 38%
16:00 +39°C° 0 mm 3 mps 751 mmHg 37%
17:00 +39°C° 0 mm 3 mps 751 mmHg 36%
18:00 +38°C° 0.4 mm 2 mps 751 mmHg 39%
19:00 +37°C° 0.4 mm 2 mps 752 mmHg 41%
20:00 +36°C° 0.4 mm 2 mps 752 mmHg 44%
21:00 +35°C° 0.6 mm 2 mps 752 mmHg 49%
22:00 +34°C° 0.6 mm 2 mps 753 mmHg 55%
23:00 +32°C° 0.6 mm 2 mps 753 mmHg 60%

Day after tomorrow, 7 July, Tuesday

Time Temperature Precipitation Wind Pressure Humidity
00:00 +30°C° 4.4 mm 3 mps 753 mmHg 68%
01:00 +28°C° 4.4 mm 4 mps 753 mmHg 76%
02:00 +26°C° 4.4 mm 5 mps 752 mmHg 84%
03:00 +26°C° 1.8 mm 4 mps 753 mmHg 81%
04:00 +27°C° 1.8 mm 4 mps 753 mmHg 78%
05:00 +27°C° 1.8 mm 3 mps 753 mmHg 75%
06:00 +27°C° 0.1 mm 3 mps 753 mmHg 72%
07:00 +28°C° 0.1 mm 3 mps 754 mmHg 68%
08:00 +29°C° 0.1 mm 2 mps 754 mmHg 64%
09:00 +30°C° 0 mm 2 mps 754 mmHg 59%
10:00 +32°C° 0 mm 2 mps 754 mmHg 54%
11:00 +34°C° 0 mm 2 mps 753 mmHg 49%
12:00 +36°C° 0 mm 2 mps 753 mmHg 45%
13:00 +37°C° 0 mm 2 mps 752 mmHg 42%
14:00 +38°C° 0 mm 2 mps 752 mmHg 39%
15:00 +39°C° 0 mm 2 mps 751 mmHg 37%
16:00 +39°C° 0 mm 2 mps 751 mmHg 36%
17:00 +40°C° 0 mm 1 mps 751 mmHg 34%
18:00 +39°C° 0 mm 2 mps 751 mmHg 37%
19:00 +38°C° 0 mm 2 mps 752 mmHg 40%
20:00 +37°C° 0 mm 2 mps 752 mmHg 42%
21:00 +36°C° 0 mm 3 mps 752 mmHg 49%
22:00 +35°C° 0 mm 4 mps 752 mmHg 55%
23:00 +33°C° 0 mm 6 mps 752 mmHg 61%

8 July, Wednesday

Time Temperature Precipitation Wind Pressure Humidity
00:00 +33°C° 0 mm 6 mps 752 mmHg 63%
01:00 +32°C° 0 mm 7 mps 751 mmHg 65%
02:00 +31°C° 0 mm 8 mps 751 mmHg 66%
03:00 +30°C° 0 mm 7 mps 751 mmHg 66%
04:00 +30°C° 0 mm 6 mps 752 mmHg 65%
05:00 +30°C° 0 mm 4 mps 752 mmHg 64%
06:00 +32°C° 0 mm 4 mps 752 mmHg 60%
07:00 +33°C° 0 mm 5 mps 753 mmHg 57%
08:00 +34°C° 0 mm 5 mps 753 mmHg 53%
09:00 +36°C° 0 mm 5 mps 753 mmHg 47%
10:00 +37°C° 0 mm 5 mps 752 mmHg 41%
11:00 +40°C° 0 mm 5 mps 752 mmHg 35%
12:00 +41°C° 0 mm 5 mps 751 mmHg 32%
13:00 +43°C° 0 mm 5 mps 750 mmHg 29%
14:00 +45°C° 0 mm 6 mps 750 mmHg 26%
15:00 +45°C° 0 mm 6 mps 749 mmHg 26%
16:00 +45°C° 0 mm 6 mps 749 mmHg 25%
17:00 +45°C° 0 mm 6 mps 748 mmHg 25%
18:00 +42°C° 0 mm 5 mps 749 mmHg 28%
19:00 +41°C° 0 mm 4 mps 749 mmHg 32%
20:00 +40°C° 0 mm 4 mps 750 mmHg 35%
21:00 +39°C° 0 mm 5 mps 750 mmHg 38%
22:00 +38°C° 0 mm 6 mps 750 mmHg 41%
23:00 +36°C° 0 mm 7 mps 750 mmHg 44%

9 July, Thursday

Time Temperature Precipitation Wind Pressure Humidity
00:00 +35°C° 0 mm 6 mps 750 mmHg 45%
01:00 +35°C° 0 mm 6 mps 750 mmHg 45%
02:00 +34°C° 0 mm 5 mps 750 mmHg 46%
03:00 +33°C° 0 mm 5 mps 750 mmHg 48%
04:00 +32°C° 0 mm 5 mps 751 mmHg 50%
05:00 +32°C° 0 mm 4 mps 751 mmHg 52%
06:00 +32°C° 0 mm 5 mps 751 mmHg 52%
07:00 +32°C° 0 mm 6 mps 752 mmHg 51%
08:00 +33°C° 0 mm 6 mps 752 mmHg 50%
09:00 +34°C° 0 mm 6 mps 752 mmHg 47%
10:00 +35°C° 0 mm 6 mps 752 mmHg 43%
11:00 +38°C° 0 mm 6 mps 752 mmHg 40%
12:00 +39°C° 0 mm 7 mps 751 mmHg 38%
13:00 +40°C° 0 mm 7 mps 750 mmHg 35%
14:00 +41°C° 0 mm 7 mps 750 mmHg 33%
15:00 +41°C° 0 mm 7 mps 750 mmHg 34%
16:00 +40°C° 0 mm 6 mps 749 mmHg 34%
17:00 +40°C° 0 mm 6 mps 749 mmHg 35%
18:00 +39°C° 0 mm 6 mps 750 mmHg 37%
19:00 +37°C° 0 mm 5 mps 750 mmHg 39%
20:00 +36°C° 0 mm 4 mps 751 mmHg 42%
21:00 +36°C° 0 mm 4 mps 751 mmHg 44%
22:00 +35°C° 0 mm 4 mps 751 mmHg 45%
23:00 +35°C° 0 mm 4 mps 751 mmHg 47%

10 July, Friday

Time Temperature Precipitation Wind Pressure Humidity
00:00 +34°C° 0 mm 5 mps 751 mmHg 50%
01:00 +33°C° 0 mm 5 mps 751 mmHg 52%
02:00 +33°C° 0 mm 6 mps 751 mmHg 55%
03:00 +32°C° 0 mm 5 mps 751 mmHg 58%
04:00 +30°C° 0 mm 5 mps 752 mmHg 62%
05:00 +30°C° 0 mm 5 mps 752 mmHg 65%
06:00 +30°C° 0 mm 5 mps 753 mmHg 64%
07:00 +32°C° 0 mm 5 mps 753 mmHg 62%
08:00 +32°C° 0 mm 6 mps 753 mmHg 61%
09:00 +34°C° 0 mm 6 mps 753 mmHg 55%
10:00 +36°C° 0 mm 6 mps 753 mmHg 49%
11:00 +38°C° 0 mm 6 mps 752 mmHg 44%
12:00 +39°C° 0 mm 5 mps 752 mmHg 41%
13:00 +40°C° 0 mm 5 mps 751 mmHg 38%
14:00 +41°C° 0 mm 5 mps 750 mmHg 35%
15:00 +41°C° 0 mm 5 mps 750 mmHg 35%
16:00 +41°C° 0 mm 5 mps 750 mmHg 36%
17:00 +40°C° 0 mm 5 mps 749 mmHg 36%
18:00 +40°C° 0 mm 4 mps 750 mmHg 39%
19:00 +38°C° 0 mm 4 mps 750 mmHg 42%
20:00 +37°C° 0 mm 4 mps 751 mmHg 44%
21:00 +36°C° 0.1 mm 4 mps 751 mmHg 46%
22:00 +36°C° 0.1 mm 3 mps 752 mmHg 47%
23:00 +35°C° 0.1 mm 3 mps 752 mmHg 49%
Show more